This demonstration page uses our WeatherBlox Daily Observations layout. Learn more.

Left ArrowRight Arrow

Hourly Observations for March 1, 2018

Temp ( °F °C ) Dew Point ( °F °C ) Humidity (%) Winds ( mph kmh ) Pressure ( in mb ) Visibility ( mi km ) Precip ( " mm )
12:54 am 00:54 Clear 30 -1.1 25 -3.9 82 82 NNW 13 20 30.06 1018 10 16 0.00 0.00
1:54 am 01:54 Clear 30 -1.1 23 -5 75 75 NNW 10 17 30.08 1019 10 16 0.00 0.00
2:54 am 02:54 Clear 29 -1.7 21 -6.1 72 72 NNW 10 17 30.09 1019 10 16 0.00 0.00
3:54 am 03:54 Clear 29 -1.7 20 -6.7 69 69 NW 7 11 30.10 1019 10 16 0.00 0.00
4:54 am 04:54 Clear 28 -2.2 20 -6.7 72 72 NNW 6 9 30.14 1021 10 16 0.00 0.00
5:54 am 05:54 Clear 24 -4.4 18 -7.8 77 77 Calm 30.18 1022 10 16 0.00 0.00
6:54 am 06:54 Clear 22 -5.6 17 -8.3 82 82 Calm 30.21 1023 10 16 0.00 0.00
7:54 am 07:54 Sunny 28 -2.2 19 -7.2 69 69 NW 3 6 30.24 1024 10 16 0.00 0.00
8:54 am 08:54 Sunny 33 0.6 22 -5.6 64 64 NW 9 15 30.26 1025 10 16 0.00 0.00
9:54 am 09:54 Sunny 38 3.3 22 -5.6 52 52 NNW 7 11 30.28 1025 10 16 0.00 0.00
10:54 am 10:54 Sunny 45 7.2 19 -7.2 35 35 N 13 20 30.28 1026 10 16 0.00 0.00
11:54 am 11:54 Sunny 48 8.9 18 -7.8 30 30 N 14 22 30.28 1026 10 16 0.00 0.00
12:54 pm 12:54 Sunny 50 10 17 -8.3 27 27 N 9 15 30.29 1026 10 16 0.00 0.00
1:54 pm 13:54 Sunny 51 10.6 16 -8.9 25 25 N 14 22 30.28 1025 10 16 0.00 0.00
2:54 pm 14:54 Sunny 51 10.6 18 -7.8 27 27 N 14 22 30.29 1026 10 16 0.00 0.00
3:54 pm 15:54 Sunny 51 10.6 18 -7.8 27 27 NNW 9 15 30.29 1026 10 16 0.00 0.00
4:54 pm 16:54 Sunny 49 9.4 19 -7.2 31 31 NE 9 15 30.29 1026 10 16 0.00 0.00
5:54 pm 17:54 Sunny 42 5.6 21 -6.1 43 43 NE 7 11 30.32 1027 10 16 0.00 0.00
6:54 pm 18:54 Clear 37 2.8 22 -5.6 54 54 E 7 11 30.33 1027 10 16 0.00 0.00
7:54 pm 19:54 Clear 34 1.1 21 -6.1 59 59 E 7 11 30.35 1028 10 16 0.00 0.00
8:54 pm 20:54 Clear 32 0 21 -6.1 64 64 Calm 30.35 1028 10 16 0.00 0.00
9:54 pm 21:54 Clear 31 -0.6 21 -6.1 67 67 Calm 30.37 1029 10 16 0.00 0.00
10:54 pm 22:54 Clear 23 -5 18 -7.8 81 81 NNE 5 7 30.39 1029 10 16 0.00 0.00
11:54 pm 23:54 Clear 27 -2.8 20 -6.7 75 75 Calm 30.37 1029 10 16 0.00 0.00

Powered by AerisWeather